This demonstration page uses our WeatherBlox Daily Observations layout. Learn more.

Left ArrowRight Arrow

Hourly Observations for February 6, 2019

Temp ( °F °C ) Dew Point ( °F °C ) Humidity (%) Winds ( mph kmh ) Pressure ( in mb ) Visibility ( mi km ) Precip ( " mm )
12:53 am 00:53 Mostly Clear 55 12.8 55 12.8 100 100 Calm 30.09 1019 8 13 0.00 0.00
1:53 am 01:53 Clear with Mist and Fog 55 12.8 55 12.8 100 100 Calm 30.09 1019 6 10 0.00 0.00
2:53 am 02:53 Cloudy 55 12.8 55 12.8 100 100 Calm 30.08 1019 9 14 0.00 0.00
3:53 am 03:53 Cloudy 56 13.3 56 13.3 100 100 Calm 30.08 1019 9 14 0.00 0.03
4:53 am 04:53 Cloudy with Light Rain 57 13.9 57 13.9 100 100 Calm 30.08 1019 6 10 0.02 0.51
5:23 am 05:23 Cloudy with Light Rain 57 13.9 57 13.9 100 100 Calm 30.09 1019 4 6 0.01 0.25
5:53 am 05:53 Cloudy with Mist and Fog 57 13.9 57 13.9 100 100 Calm 30.07 1018 6 10 0.01 0.25
5:59 am 05:59 Cloudy with Light Rain 56 13.3 56 13.3 100 100 Calm 30.09 1019 3 4 0.00 0.03
6:06 am 06:06 Cloudy with Mist and Fog 56 13.3 56 13.3 100 100 Calm 30.09 1019 6 10 0.00 0.03
6:53 am 06:53 Cloudy with Light Rain 58 14.4 58 14.4 100 100 Calm 30.08 1019 6 10 0.00 0.03
7:43 am 07:43 Cloudy with Rain 58 14.4 58 14.4 100 100 Calm 30.11 1020 2 3 0.04 1.02
7:53 am 07:53 Cloudy with Light Rain 59 15 59 15 100 100 Calm 30.09 1019 3 4 0.05 1.27
7:55 am 07:55 Cloudy with Light Rain 59 15 59 15 100 100 Calm 30.10 1019 3 5 0.00 0.03
8:53 am 08:53 Cloudy with Mist and Fog 62 16.7 62 16.7 100 100 SW 3 6 30.10 1019 3 5 0.00 0.03
9:53 am 09:53 Cloudy with Mist and Fog 63 17.2 63 17.2 100 100 VRB 3 6 30.10 1019 3 5 0.00 0.00
10:30 am 10:30 Cloudy with Mist and Fog 64 17.8 64 17.8 100 100 SW 5 7 30.11 1019 3 5 0.00 0.00
10:53 am 10:53 Cloudy with Mist and Fog 65 18.3 64 17.8 97 97 WSW 5 7 30.12 1020 3 5 0.00 0.00
11:53 am 11:53 Cloudy with Mist and Fog 66 18.9 65 18.3 96 96 WSW 9 15 30.11 1020 4 6 0.00 0.00
12:53 pm 12:53 Cloudy 67 19.4 66 18.9 97 97 SSW 9 15 30.09 1019 10 16 0.00 0.03
1:05 pm 13:05 Cloudy 68 20 65 18.3 90 90 SSW 10 17 30.09 1019 10 16 0.00 0.00
1:53 pm 13:53 Cloudy 69 20.6 64 17.8 84 84 SW 9 15 30.08 1019 10 16 0.00 0.00
2:19 pm 14:19 Cloudy 69 20.6 65 18.3 87 87 SW 9 15 30.06 1018 10 16 0.00 0.00
2:53 pm 14:53 Cloudy 70 21.1 65 18.3 84 84 SSW 6 9 30.06 1018 10 16 0.00 0.00
3:07 pm 15:07 Cloudy 70 21.1 64 17.8 82 82 SW 10 17 30.04 1017 10 16 0.00 0.00
3:36 pm 15:36 Cloudy 70 21.1 64 17.8 82 82 SW 10 17 30.04 1017 10 16 0.00 0.00
3:53 pm 15:53 Cloudy 70 21.1 64 17.8 82 82 SSW 6 9 30.05 1018 10 16 0.00 0.00
4:31 pm 16:31 Cloudy 71 21.7 64 17.8 79 79 SW 3 6 30.04 1017 10 16 0.00 0.00
4:53 pm 16:53 Cloudy 71 21.7 64 17.8 79 79 SSW 6 9 30.05 1018 10 16 0.00 0.00
5:13 pm 17:13 Cloudy 71 21.7 64 17.8 79 79 SSW 8 13 30.03 1017 10 16 0.00 0.00
5:53 pm 17:53 Cloudy 70 21.1 63 17.2 79 79 SSW 6 9 30.04 1017 10 16 0.00 0.00
6:53 pm 18:53 Mostly Cloudy 69 20.6 63 17.2 81 81 S 5 7 30.04 1017 10 16 0.00 0.00
7:53 pm 19:53 Mostly Clear 67 19.4 63 17.2 87 87 S 5 7 30.06 1018 10 16 0.00 0.00
8:17 pm 20:17 Mostly Cloudy 67 19.4 63 17.2 87 87 SSW 5 7 30.06 1018 10 16 0.00 0.00
8:44 pm 20:44 Partly Cloudy 66 18.9 63 17.2 90 90 SSW 5 7 30.06 1018 10 16 0.00 0.00
8:53 pm 20:53 Mostly Clear 66 18.9 63 17.2 90 90 Calm 30.07 1018 10 16 0.00 0.00
9:53 pm 21:53 Mostly Clear 65 18.3 64 17.8 97 97 SW 3 6 30.08 1019 10 16 0.00 0.00
10:04 pm 22:04 Mostly Cloudy 64 17.8 64 17.8 100 100 S 5 7 30.08 1018 10 16 0.00 0.00
10:41 pm 22:41 Cloudy 65 18.3 64 17.8 97 97 SW 3 6 30.08 1019 10 16 0.00 0.00
10:53 pm 22:53 Cloudy 65 18.3 64 17.8 97 97 Calm 30.09 1019 10 16 0.00 0.00
11:48 pm 23:48 Cloudy 64 18 64 18 100 100 Calm 30.09 1019 10 16 0.00 0.00
11:53 pm 23:53 Cloudy 64 17.8 64 17.8 100 100 Calm 30.09 1019 10 16 0.00 0.00

Powered by AerisWeather